Dewpoint
-11 -10 -10 -10 -10 -9 -9 -9 -9 -8 -8 -8 -8 -7 -5 -2 1 2 4 2 1 3 8 14 14 14 15 14 14 13 16 16 15 14 6 4 7 11 11 13 13 13 13 12 13
-12 -11 -11 -11 -11 -10 -10 -10 -9 -9 -8 -7 -7 -6 -5 -0 4 6 5 8 8 7 13 14 14 15 15 14 12 14 15 14 14 13 7 5 6 9 12 13 13 13 13 13 14
-12 -12 -12 -11 -11 -11 -11 -10 -10 -9 -8 -7 -7 -6 -5 -0 7 5 5 7 9 13 14 13 13 14 14 14 14 14 14 12 11 11 12 7 5 8 12 13 13 13 14 14 14
-12 -12 -11 -11 -11 -11 -11 -11 -11 -10 -9 -8 -7 -6 -3 -0 9 8 5 9 10 13 12 11 12 10 12 14 14 14 13 13 11 11 12 7 6 9 10 10 11 12 13 14 15
-14 -13 -12 -12 -11 -11 -11 -11 -11 -10 -9 -8 -7 -7 -4 0 7 10 9 9 11 13 12 13 12 12 14 11 12 12 12 11 11 11 12 10 6 6 8 10 11 13 13 14 15
-16 -16 -15 -14 -13 -12 -11 -11 -11 -11 -10 -9 -8 -7 -6 1 10 11 9 9 13 13 13 12 14 14 13 14 14 13 13 13 13 12 11 8 8 7 9 10 12 13 13 14 14
-18 -17 -16 -16 -15 -13 -12 -12 -11 -11 -11 -10 -9 -8 -6 0 9 10 11 12 13 12 12 12 12 14 13 14 12 13 14 11 11 11 10 8 9 9 10 11 13 13 13 13 13
-19 -19 -18 -17 -17 -16 -14 -13 -11 -11 -11 -11 -10 -9 -3 0 3 9 8 10 8 8 11 10 10 13 13 10 10 10 12 13 8 9 9 8 11 8 12 12 13 13 13 12 13
-17 -19 -19 -18 -17 -17 -17 -13 -11 -11 -11 -11 -10 -6 -1 1 1 2 2 6 6 8 8 8 8 10 10 11 12 11 12 11 10 8 9 8 9 8 12 12 13 13 13 13 12
-13 -16 -19 -20 -18 -18 -18 -12 -11 -11 -11 -11 -9 -6 -3 1 1 1 0 4 6 4 4 5 7 7 12 12 13 11 12 10 10 8 9 10 9 9 10 12 12 12 12 12 12
-8 -11 -15 -20 -19 -18 -16 -10 -3 -2 -5 -7 -7 -5 -1 -1 -3 -0 -1 0 5 5 6 5 10 11 9 10 9 10 11 12 11 8 8 10 10 10 7 10 11 12 12 12 12
-7 -7 -10 -17 -20 -18 -13 -10 -5 -4 -4 -6 -6 -5 -5 -5 -5 -2 -1 0 5 6 5 6 10 9 7 7 9 11 13 11 7 3 5 3 4 7 8 8 8 9 11 11 11
-7 -7 -8 -13 -20 -18 -4 -7 -6 -5 -4 -6 -8 -8 -6 -5 -4 -3 -1 0 4 6 5 7 7 5 5 5 5 10 9 6 5 3 2 2 4 2 9 9 8 8 9 9 10
-7 -7 -7 -11 -17 -9 -5 -6 -5 -5 -3 -4 -5 -8 -6 -5 -4 -4 -1 1 3 5 4 4 3 3 2 3 3 8 6 5 3 3 5 2 7 3 5 9 10 10 10 9 9
-8 -8 -8 -7 -14 -11 -6 -6 -4 -5 2 -3 -9 -8 -6 -4 -4 -4 -2 1 3 4 3 5 3 3 3 2 2 3 2 2 2 2 2 2 4 3 4 6 6 8 10 10 10
-9 -9 -9 -8 -9 -16 -7 -8 -4 -2 1 -3 -10 -7 -5 -5 -5 -5 -2 -2 1 2 2 3 1 1 2 1 0 -0 1 1 2 2 5 3 4 4 2 3 4 5 6 9 11
-12 -10 -10 -9 -10 -8 -11 -6 -3 0 -4 -5 -10 -6 -5 -4 -5 -5 -5 -2 -0 4 4 2 1 -0 0 1 -1 0 2 5 5 5 5 2 2 1 -1 1 2 1 3 4 6
-14 -12 -11 -11 -8 -11 -7 -3 1 -3 -0 -5 -8 -9 -5 -9 -6 -6 -5 -4 -5 0 2 3 2 -0 -1 -0 0 0 1 4 7 6 4 -0 0 -1 1 8 7 3 2 2 4
-14 -12 -12 -11 -8 -12 -4 0 -3 -2 -4 -8 -8 -9 -9 -11 -13 -9 -7 -7 -8 -1 2 2 2 -2 -2 -2 -2 -1 2 0 3 1 1 0 -3 -2 8 10 10 3 5 7 6
-12 -11 -7 -9 -7 -12 -3 -1 -2 -2 -11 -10 -7 -6 -4 -5 -6 -11 -9 -10 -9 -4 -3 -1 1 -2 -3 -4 -4 -2 -2 1 1 3 4 0 -2 9 11 12 14 10 8 8 9
-11 -2 -2 -3 -13 -6 -7 -4 -4 -8 -12 -10 -10 -9 -5 -4 -5 -7 -11 -11 -10 -12 -3 -2 -1 -2 -8 -4 -5 -7 -4 -3 -1 -1 1 1 1 6 10 12 15 15 14 14 11
-8 1 -3 -7 -9 -6 -8 -6 -9 -9 -13 -13 -10 -10 -6 -5 -6 -7 -5 -5 -7 -5 -5 -8 -3 -0 -2 -7 -6 -7 -5 -4 1 1 -2 -1 -1 6 10 15 16 17 16 16 15
-7 -4 -0 -10 -3 -4 -6 -7 -8 -10 -11 -11 -11 -8 -8 -8 -7 -6 -6 -8 -6 -7 -4 -4 -2 0 -1 -4 -4 -2 -2 -4 -2 -1 0 1 1 6 10 14 15 16 15 14 13
-2 5 2 -4 -3 -3 -2 -2 -3 -6 -9 -10 -11 -11 -9 -9 -8 -7 -7 -6 -2 -0 -3 -3 -2 -1 0 -2 -2 -2 -2 -2 -0 3 2 4 5 8 11 14 13 14 15 16 17
6 4 3 3 1 2 1 -1 -0 -0 -7 -9 -10 -10 -9 -9 -7 -7 0 1 -1 -0 -2 -5 -3 -3 -3 -3 -2 -2 -1 0 0 1 4 3 6 7 10 13 13 11 10 10 10
4 5 3 2 3 2 1 -1 -1 -2 -5 -5 -7 -5 -9 -8 -8 3 3 2 1 -0 -1 -2 -0 1 -0 2 2 2 2 4 5 5 5 5 7 10 10 10 9 9 9 9 8
2 4 5 1 3 3 2 2 1 -1 -1 -5 -2 1 1 2 0 0 0 -0 0 -0 -0 -1 -0 1 1 2 1 2 2 9 12 12 11 5 10 9 9 10 8 7 10 12 9
Wind_Speed
7 7 8 9 9 9 9 9 9 9 9 8 8 8 8 6 8 8 10 5 4 2 3 3 2 2 1 2 4 2 4 2 2 0 5 7 5 11 7 20 9 13 9 17 32
7 8 8 9 9 9 9 9 9 9 9 9 9 9 10 10 10 9 7 7 7 6 6 0 4 4 4 2 2 4 3 3 3 3 3 5 12 16 7 12 1 12 10 33 36
8 9 9 10 9 9 9 9 9 9 9 9 9 10 11 12 4 1 8 8 10 9 3 4 4 2 4 3 3 1 2 2 9 13 20 11 8 4 16 4 12 22 28 38 38
9 10 10 10 10 10 10 9 9 9 9 9 9 10 11 6 2 3 10 9 14 11 2 1 3 1 3 1 2 3 9 6 13 7 11 5 13 7 15 8 21 24 30 39 39
10 10 10 10 10 10 10 10 9 8 9 9 9 10 10 6 3 4 10 16 14 11 7 6 6 2 1 3 1 1 4 9 11 15 21 16 16 9 12 5 17 30 32 39 42
10 10 11 11 11 10 10 10 10 9 9 9 9 9 9 4 2 6 11 14 11 7 5 8 2 5 1 4 4 5 10 14 13 17 11 3 4 13 11 17 23 34 34 38 40
11 11 11 11 11 10 10 10 10 9 10 9 9 9 11 8 6 7 9 11 6 6 8 6 7 3 4 4 5 8 6 12 15 8 5 13 1 6 21 27 31 34 40 37 36
12 13 12 12 11 10 10 10 10 10 10 9 9 9 7 3 11 13 11 12 9 9 9 10 8 9 4 7 6 5 3 5 8 9 6 10 10 5 28 33 29 32 34 40 40
13 13 13 13 11 10 9 10 10 9 9 8 8 6 8 10 14 13 13 8 9 11 10 12 9 5 3 2 5 3 2 6 7 7 4 6 7 8 31 30 27 31 35 37 38
14 14 14 13 12 10 8 8 7 8 7 8 11 6 12 5 9 15 13 12 8 8 10 6 7 2 3 4 4 3 5 5 6 3 10 6 11 8 29 30 30 32 34 35 41
16 15 14 14 12 9 5 2 3 0 7 9 5 8 5 4 10 11 15 16 15 8 3 1 4 6 9 9 12 5 3 9 16 8 5 11 10 10 26 24 21 28 32 36 43
16 16 14 13 11 8 3 2 7 5 10 13 18 23 24 21 9 8 10 12 7 6 1 4 5 10 10 8 9 7 6 8 9 6 3 2 8 6 17 28 37 33 33 37 40
17 16 15 12 10 4 2 5 8 6 4 10 18 20 19 7 11 11 13 18 4 4 4 5 9 11 8 10 12 5 5 5 3 5 6 5 7 3 12 27 27 31 34 35 41
18 17 15 11 4 2 4 4 7 3 4 6 5 9 12 8 5 14 16 15 3 8 5 6 4 3 4 6 3 6 3 6 2 4 2 4 6 6 4 8 13 30 32 38 40
18 17 14 11 8 4 2 2 4 1 1 2 4 3 15 12 1 10 19 17 8 6 4 8 4 6 7 5 4 9 2 5 2 3 1 3 3 7 4 7 11 19 35 37 42
18 18 15 13 8 6 6 2 1 5 5 2 6 6 6 6 2 2 13 10 10 3 1 8 3 3 7 5 5 9 2 4 5 3 4 4 5 7 5 6 7 8 30 39 37
17 17 16 12 4 5 5 1 5 3 5 1 5 4 3 6 3 2 4 2 6 2 5 8 11 4 5 6 3 5 6 4 5 5 5 3 2 9 9 8 11 17 14 27 38
18 16 15 11 8 8 3 4 3 4 6 4 2 3 6 3 4 4 4 6 4 4 3 6 9 3 5 7 5 2 7 5 6 4 6 4 4 6 3 16 23 22 20 18 29
18 14 13 5 10 13 7 3 7 6 3 7 3 5 1 4 5 5 6 5 7 9 10 6 7 4 4 3 6 3 4 5 5 2 3 4 8 9 15 17 24 23 20 20 11
18 13 6 7 11 17 4 5 4 4 4 4 2 1 4 2 5 5 7 5 8 12 5 5 5 6 4 3 3 7 4 2 2 3 5 5 4 4 13 14 17 14 16 14 9
13 6 3 8 17 10 4 7 5 7 7 5 2 2 5 4 4 5 4 4 2 2 14 7 7 16 2 3 7 2 3 3 4 4 4 2 5 5 9 9 7 9 18 14 10
6 2 8 16 4 2 3 5 2 3 3 4 3 8 6 7 6 5 5 4 5 1 6 7 5 6 13 6 3 4 5 5 5 5 2 4 5 4 5 8 6 14 20 20 20
12 3 11 15 2 2 4 4 4 4 5 4 4 5 1 6 4 3 1 3 8 4 0 6 0 2 8 6 4 2 2 4 5 3 3 4 4 1 7 9 10 21 22 21 17
4 2 3 10 1 4 3 7 5 7 8 8 7 7 4 5 2 6 3 1 7 8 5 4 3 6 6 7 4 3 2 2 6 4 3 5 5 3 4 5 9 10 8 8 7
5 2 2 2 2 2 2 4 6 4 6 3 4 7 9 7 5 4 1 2 4 9 4 4 2 2 5 6 2 4 6 3 5 4 5 3 7 4 3 3 9 13 14 12 13
4 4 6 4 6 3 4 1 5 3 5 7 6 8 6 6 8 7 5 2 2 5 3 3 3 1 3 0 4 4 4 6 6 3 5 5 3 0 9 11 16 16 16 15 16
5 3 3 4 4 1 2 3 6 10 9 17 7 5 5 6 9 9 5 6 7 7 2 1 4 3 4 4 4 4 2 8 6 5 1 3 1 5 6 8 13 18 18 17 16
Wind_Direction
329 323 327 327 333 335 333 333 334 335 335 336 339 337 328 315 294 269 245 235 216 132 129 116 23 169 165 39 61 53 60 58 209 306 284 170 135 166 132 149 161 177 190 168 161
329 325 328 329 330 329 326 328 329 332 330 333 337 333 329 326 305 268 221 195 201 162 142 141 87 133 102 50 49 71 100 220 210 277 302 278 150 164 140 165 225 166 170 158 165
331 327 327 326 324 323 321 323 325 327 325 330 332 329 330 329 312 257 198 202 175 148 175 262 277 315 95 50 9 5 213 318 285 294 296 231 171 154 135 209 203 169 157 167 172
328 326 324 322 318 318 317 319 321 320 319 323 326 327 331 323 216 243 193 177 154 161 144 203 153 29 54 45 347 11 255 243 285 318 335 213 180 142 163 216 213 194 176 174 179
327 325 321 317 315 316 315 314 314 310 310 313 319 326 336 316 283 179 172 167 162 169 175 77 34 80 160 171 248 166 270 263 276 288 294 255 189 182 206 210 164 173 177 180 186
325 320 318 316 315 314 311 310 305 303 301 304 311 319 321 293 166 151 166 166 159 165 197 257 277 318 207 217 201 237 278 282 274 262 266 184 189 165 192 179 167 170 180 186 193
324 320 318 316 314 313 309 305 300 295 292 296 299 309 297 263 193 168 147 161 181 251 258 269 271 282 305 324 298 274 316 322 275 254 208 153 273 223 182 178 176 183 183 190 202
325 322 318 315 312 311 308 303 296 287 285 285 289 297 267 216 205 211 222 203 231 231 249 293 293 279 254 313 305 298 90 350 289 139 186 164 253 229 179 177 181 187 195 196 204
329 324 318 314 310 309 310 300 292 283 275 275 278 278 267 227 229 222 225 217 221 231 253 268 302 274 281 38 346 347 253 218 283 212 131 161 243 202 183 184 186 193 198 204 210
331 327 323 315 308 314 313 306 291 275 269 269 257 292 246 238 235 227 219 223 247 273 276 238 209 259 68 74 260 287 319 313 256 266 205 171 249 176 185 192 198 199 202 207 212
333 330 326 319 310 316 318 333 343 329 277 245 269 242 240 278 301 257 230 224 238 271 226 63 81 244 258 208 237 269 258 278 282 253 161 215 245 193 195 204 211 212 212 210 216
329 329 327 320 308 314 336 81 39 321 299 265 259 260 258 264 293 252 230 203 177 221 348 24 248 233 242 258 229 201 242 267 289 38 141 163 255 222 186 210 210 208 214 217 221
325 325 326 325 308 305 85 46 6 7 236 279 246 251 250 250 231 253 216 211 173 203 203 182 244 320 322 324 328 202 185 261 229 341 3 18 311 294 218 222 220 223 222 222 220
322 320 322 333 307 223 142 23 359 14 43 270 221 241 207 208 270 241 220 203 225 223 202 234 314 105 328 305 321 325 237 237 194 58 286 39 289 294 312 248 212 222 221 225 226
320 314 314 315 294 256 227 329 348 4 342 161 196 185 174 173 211 206 212 196 194 217 116 249 302 335 316 252 19 260 314 283 127 112 104 340 48 267 342 285 253 219 227 225 227
316 309 305 304 296 238 234 302 207 45 255 309 161 165 131 193 226 136 178 192 231 208 289 252 271 197 229 262 195 260 213 44 45 83 10 222 120 292 279 238 297 267 220 226 224
314 303 295 285 273 177 219 191 49 156 308 310 211 152 166 170 202 166 136 149 177 118 289 307 279 240 209 300 14 76 54 338 346 7 225 103 114 236 284 322 270 283 248 230 230
313 298 284 271 249 217 178 62 194 244 263 347 323 86 161 153 254 209 174 225 246 135 112 202 316 204 163 174 217 346 154 157 219 213 250 354 263 259 325 315 337 317 288 268 235
317 304 289 255 215 187 171 105 211 207 297 330 356 97 238 188 169 144 222 236 212 166 183 165 264 281 217 177 128 304 252 206 139 59 77 245 295 317 349 338 355 347 29 6 283
324 315 301 209 184 171 94 228 237 239 338 2 76 36 146 198 155 160 189 234 231 185 166 220 302 224 278 120 243 158 175 297 3 174 254 278 285 246 326 326 335 349 61 76 82
327 325 326 140 155 160 169 231 265 274 338 12 353 297 232 190 201 181 196 272 147 203 174 155 161 258 31 181 239 323 273 70 130 124 187 227 264 227 277 296 328 23 57 57 75
356 14 142 150 85 75 173 202 270 280 304 293 212 216 218 197 200 181 191 175 348 201 139 201 159 237 242 255 274 206 151 131 112 277 169 157 279 313 319 302 124 64 71 74 84
337 308 177 178 135 283 285 283 263 264 245 224 255 214 274 193 152 177 276 115 11 23 331 186 6 39 347 357 4 129 148 125 106 78 197 127 258 335 351 338 335 117 115 107 89
347 25 136 225 240 121 11 292 274 280 257 212 240 217 170 197 304 174 176 16 35 38 44 80 119 151 183 216 178 269 306 180 131 117 190 218 167 167 347 344 11 39 55 24 74
8 17 12 268 295 12 123 305 291 294 260 275 294 225 187 198 159 181 210 336 47 2 46 90 116 197 254 252 192 239 244 207 165 172 152 225 158 158 151 46 359 3 12 7 356
9 12 342 297 312 351 75 261 278 290 235 264 218 265 195 184 186 188 142 170 192 1 83 356 199 121 301 260 232 214 172 115 66 63 121 162 84 96 108 63 32 14 358 349 342
360 349 323 331 359 47 225 310 282 320 263 243 264 120 104 181 157 147 171 169 164 152 187 100 126 74 271 351 348 332 349 109 97 22 139 124 321 359 70 80 42 11 4 345 334
Height
1530 1528 1527 1526 1525 1524 1522 1521 1520 1518 1517 1515 1514 1512 1511 1509 1507 1506 1504 1506 1505 1505 1505 1504 1504 1503 1504 1504 1504 1504 1512 1518 1511 1507 1500 1497 1499 1502 1501 1502 1504 1507 1506 1509 1515
1529 1527 1526 1526 1524 1523 1521 1520 1519 1517 1515 1514 1513 1511 1509 1508 1505 1503 1504 1503 1504 1504 1505 1504 1503 1503 1504 1504 1504 1506 1515 1508 1502 1500 1501 1498 1495 1497 1501 1505 1505 1507 1508 1511 1514
1528 1526 1525 1524 1523 1522 1520 1519 1517 1516 1514 1513 1511 1510 1508 1506 1504 1501 1501 1502 1504 1505 1505 1504 1503 1502 1504 1505 1506 1506 1509 1503 1497 1497 1496 1499 1497 1495 1498 1506 1501 1502 1506 1511 1515
1527 1525 1524 1523 1522 1521 1519 1518 1516 1515 1513 1512 1511 1509 1507 1506 1508 1500 1500 1502 1504 1505 1505 1503 1503 1503 1504 1504 1504 1506 1500 1501 1495 1494 1498 1497 1495 1495 1495 1496 1497 1501 1502 1508 1514
1526 1524 1523 1521 1520 1519 1518 1516 1515 1514 1512 1511 1510 1508 1507 1505 1501 1500 1500 1502 1503 1505 1505 1504 1504 1504 1505 1506 1505 1506 1500 1499 1496 1495 1496 1493 1492 1493 1495 1495 1497 1502 1504 1506 1510
1525 1523 1521 1520 1518 1517 1516 1515 1513 1512 1511 1510 1509 1507 1507 1506 1501 1500 1501 1503 1505 1506 1506 1507 1507 1505 1505 1505 1506 1500 1497 1494 1492 1492 1495 1494 1493 1494 1496 1496 1499 1502 1505 1507 1507
1523 1521 1519 1518 1516 1515 1514 1513 1511 1510 1509 1508 1508 1506 1505 1503 1501 1502 1503 1505 1506 1506 1505 1506 1507 1508 1505 1502 1500 1498 1499 1491 1482 1484 1488 1491 1499 1494 1492 1495 1497 1501 1502 1506 1508
1521 1519 1517 1516 1514 1513 1512 1511 1509 1508 1507 1507 1506 1506 1502 1500 1500 1501 1502 1504 1506 1505 1504 1505 1506 1507 1505 1503 1501 1501 1502 1512 1481 1481 1486 1489 1504 1490 1491 1492 1496 1500 1503 1503 1506
1520 1517 1515 1514 1512 1511 1510 1508 1507 1506 1506 1505 1506 1505 1499 1497 1497 1499 1501 1502 1504 1505 1505 1506 1506 1506 1506 1508 1513 1506 1518 1510 1494 1480 1482 1489 1495 1483 1488 1491 1493 1496 1497 1500 1502
1518 1515 1513 1511 1509 1509 1507 1506 1504 1504 1504 1504 1503 1507 1497 1495 1495 1497 1499 1501 1503 1503 1504 1504 1506 1506 1509 1516 1537 1517 1515 1504 1501 1481 1481 1489 1487 1484 1486 1489 1488 1490 1492 1496 1495
1516 1513 1511 1509 1507 1506 1506 1504 1506 1505 1502 1499 1498 1496 1494 1494 1494 1494 1497 1500 1502 1503 1505 1502 1511 1518 1508 1507 1502 1504 1509 1509 1483 1477 1481 1484 1483 1484 1483 1489 1491 1490 1490 1490 1489
1514 1512 1509 1507 1505 1504 1504 1504 1506 1507 1500 1493 1492 1491 1492 1494 1495 1492 1494 1499 1499 1504 1501 1509 1517 1504 1499 1496 1498 1503 1511 1506 1483 1472 1480 1481 1484 1476 1480 1478 1476 1480 1484 1485 1486
1512 1509 1507 1505 1503 1503 1503 1504 1503 1501 1500 1488 1486 1485 1488 1492 1491 1488 1492 1494 1496 1501 1502 1510 1498 1492 1493 1492 1495 1498 1503 1494 1491 1481 1479 1484 1492 1481 1476 1472 1478 1478 1478 1482 1480
1509 1507 1505 1503 1504 1501 1502 1502 1501 1500 1509 1490 1482 1480 1483 1488 1488 1486 1488 1493 1495 1499 1499 1501 1491 1492 1495 1499 1492 1505 1484 1484 1485 1495 1514 1489 1526 1492 1475 1475 1473 1469 1472 1472 1475
1506 1504 1502 1502 1501 1501 1502 1500 1500 1500 1531 1480 1478 1477 1477 1484 1484 1482 1486 1490 1494 1494 1496 1499 1493 1496 1500 1496 1489 1498 1484 1487 1483 1497 1502 1503 1518 1495 1478 1476 1466 1462 1463 1464 1467
1503 1500 1499 1499 1499 1500 1500 1500 1501 1518 1527 1480 1474 1476 1480 1480 1481 1482 1484 1487 1489 1492 1493 1493 1488 1490 1489 1484 1487 1483 1486 1494 1502 1508 1530 1505 1516 1508 1489 1472 1463 1453 1453 1456 1459
1500 1497 1495 1495 1497 1498 1499 1501 1520 1530 1483 1481 1478 1476 1478 1481 1483 1481 1485 1490 1499 1510 1512 1496 1488 1484 1483 1488 1483 1488 1506 1536 1532 1539 1538 1510 1517 1500 1467 1468 1463 1452 1447 1447 1448
1495 1492 1491 1492 1493 1495 1498 1503 1522 1497 1491 1475 1474 1478 1485 1482 1483 1483 1488 1497 1490 1494 1515 1519 1519 1483 1477 1483 1489 1491 1502 1534 1546 1552 1531 1508 1513 1489 1468 1462 1455 1445 1443 1441 1444
1490 1488 1486 1488 1489 1493 1497 1518 1508 1496 1483 1482 1477 1484 1486 1482 1484 1487 1491 1491 1486 1488 1507 1520 1513 1479 1476 1475 1480 1490 1503 1490 1517 1523 1535 1519 1498 1472 1465 1458 1455 1447 1445 1446 1448
1486 1484 1484 1484 1487 1491 1498 1509 1496 1486 1483 1482 1489 1481 1488 1482 1486 1490 1491 1478 1479 1476 1478 1490 1510 1480 1473 1473 1475 1481 1482 1503 1517 1525 1535 1523 1511 1510 1483 1474 1464 1456 1448 1448 1449
1486 1483 1483 1484 1488 1491 1506 1504 1491 1484 1484 1485 1485 1486 1483 1482 1481 1489 1486 1474 1469 1470 1473 1483 1494 1480 1476 1482 1485 1487 1492 1496 1506 1516 1528 1536 1519 1488 1483 1478 1473 1463 1455 1454 1451
1486 1486 1485 1486 1491 1495 1500 1492 1487 1483 1483 1484 1481 1481 1481 1479 1482 1480 1479 1472 1467 1467 1477 1478 1494 1503 1488 1471 1472 1476 1478 1494 1516 1513 1521 1524 1516 1480 1481 1478 1473 1467 1461 1462 1460
1487 1486 1486 1487 1495 1496 1490 1488 1485 1484 1480 1480 1479 1473 1473 1475 1482 1475 1471 1467 1466 1466 1469 1473 1494 1512 1498 1484 1474 1475 1475 1483 1496 1505 1510 1519 1513 1482 1482 1481 1479 1466 1466 1463 1465
1489 1489 1487 1488 1487 1489 1490 1489 1485 1478 1475 1473 1471 1469 1472 1473 1471 1475 1473 1467 1467 1466 1465 1467 1489 1494 1512 1492 1481 1482 1476 1474 1485 1508 1507 1506 1495 1487 1486 1484 1481 1477 1474 1474 1471
1490 1491 1493 1492 1488 1488 1489 1488 1487 1486 1473 1470 1466 1467 1466 1475 1475 1474 1473 1470 1468 1468 1467 1472 1488 1485 1482 1478 1476 1474 1474 1470 1477 1482 1491 1488 1489 1485 1486 1485 1485 1481 1477 1473 1472
1493 1493 1492 1490 1488 1487 1489 1484 1485 1479 1477 1469 1469 1459 1462 1467 1464 1475 1469 1470 1469 1469 1470 1474 1487 1483 1482 1475 1472 1471 1467 1471 1476 1480 1480 1484 1487 1484 1485 1486 1485 1482 1478 1474 1472
1495 1495 1495 1491 1490 1490 1490 1487 1482 1478 1465 1462 1459 1459 1462 1461 1459 1460 1462 1464 1466 1470 1474 1476 1484 1492 1496 1485 1479 1486 1471 1478 1488 1488 1487 1491 1490 1484 1488 1488 1487 1482 1478 1473 1470